This is the latest recevied weather packets stored in our database for station/object HS2XQB-3. If no packets are shown the sender has not sent any weather packets the latest 10 day(s).
| Time | Temp. | Humidity | Pressure | Rain* | Wind** | Luminosity | Snow |
|---|---|---|---|---|---|---|---|
| 1788582747 | 42.22° C | 42% | 1006 hPa | - | - | 0 W/m² | - |
| 1788580925 | 41.67° C | 43% | 1006 hPa | - | - | 0 W/m² | - |
| 1788579103 | 41.11° C | 44% | 1007 hPa | - | - | 0 W/m² | - |
| 1788577281 | 40.56° C | 46% | 1007 hPa | - | - | 0 W/m² | - |
| 1788575458 | 40° C | 49% | 1007 hPa | - | - | 0 W/m² | - |
| 1788573636 | 38.89° C | 52% | 1007 hPa | - | - | 0 W/m² | - |
| 1788571814 | 36.67° C | 58% | 1007 hPa | - | - | 0 W/m² | - |
| 1788569992 | 34.44° C | 62% | 1006 hPa | - | - | 0 W/m² | - |
| 1788568170 | 32.78° C | 67% | 1006 hPa | - | - | 0 W/m² | - |
| 1788566348 | 32.22° C | 67% | 1005 hPa | - | - | 0 W/m² | - |
| 1788564526 | 32.22° C | 67% | 1005 hPa | - | - | 0 W/m² | - |
| 1788562704 | 32.22° C | 67% | 1005 hPa | - | - | 0 W/m² | - |
| 1788560881 | 32.22° C | 67% | 1005 hPa | - | - | 0 W/m² | - |
| 1788559059 | 32.22° C | 68% | 1005 hPa | - | - | 0 W/m² | - |
| 1788557237 | 32.22° C | 68% | 1004 hPa | - | - | 0 W/m² | - |
| 1788555415 | 32.22° C | 68% | 1004 hPa | - | - | 0 W/m² | - |
| 1788553593 | 32.22° C | 68% | 1004 hPa | - | - | 0 W/m² | - |
| 1788551771 | 32.22° C | 67% | 1004 hPa | - | - | 0 W/m² | - |
| 1788549949 | 32.22° C | 65% | 1004 hPa | - | - | 0 W/m² | - |
| 1788548127 | 32.22° C | 65% | 1004 hPa | - | - | 0 W/m² | - |
| 1788546305 | 32.22° C | 62% | 1005 hPa | - | - | 0 W/m² | - |
| 1788544483 | 32.78° C | 61% | 1005 hPa | - | - | 0 W/m² | - |
| 1788542661 | 32.78° C | 64% | 1005 hPa | - | - | 0 W/m² | - |
| 1788540839 | 32.78° C | 63% | 1005 hPa | - | - | 0 W/m² | - |
| 1788539017 | 33.33° C | 62% | 1005 hPa | - | - | 0 W/m² | - |
* Rain since midnight (hover to see other rain measurements)
** Current wind speed in m/s (hover to see current wind gust speed)